Regional Weather Roundup
Issued by NWS Sterling, VA

Home | Current Version | Previous Version | Graphics & Text | Print | Product List | Glossary On
Versions: 1 2 3 4 5 6 7 8 9 10 11 12 13 14 15 16 17 18 19 20 21 22 23 24 25 26 27 28 29 30 31 32 33 34 35 36 37 38 39 40 41 42 43 44 45 46 47 48 49
000
ASUS41 KLWX 022210
RWRLWX

REGIONAL WEATHER ROUNDUP
NATIONAL WEATHER SERVICE BALTIMORE MD/WASHINGTON DC
600 PM EDT TUE SEP 02 2014

Note: "FAIR" indicates few or no clouds below 12,000 feet
with no significant weather and/or obstructions to visibility.
 TC=TEMPERATURE CELSIUS

 * =Non NWS site. Station does not report precipitation (e.g. rain,
    snow, etc.), thunder, or fog.

DCZ001-MDZ009-015-VAZ040>042-051-053>054-022300-
WASHINGTON METRO

CITY           SKY/WX    TMP DP  RH WIND       PRES   REMARKS
WASHINGTON NAT PTSUNNY   91  72  53 S8        29.87S HX  98
DULLES         PTSUNNY   87  72  60 S5        29.87R HX  93
ANDREWS AFB    MOSUNNY   90  71  53 SW8       29.88S HX  96
QUANTICO       SUNNY     89  74  60 SW6       29.87S HX  98
COLLEGE PARK*  MOSUNNY   84  70  61 N5        29.87R
LEESBURG*      PTSUNNY   81  72  74 N7        29.90R
GAITHERSBURG*  PTSUNNY   73  70  88 NW6       29.95R

$$

MDZ006>007-011-014-022300-
BALTIMORE METRO

CITY           SKY/WX    TMP DP  RH WIND       PRES   REMARKS
BWI AIRPORT    PTSUNNY   76  70  82 W3        29.86R THUNDER
MD SCIENCE CTR   N/A     85  68  56 MISG      29.87R
MARTIN STATE   PTSUNNY   88  73  62 S7        29.87S HX  96
FORT MEADE*    PTSUNNY   72  70  94 CALM      29.89F

$$

MDZ012-015-019>023-022300-
MARYLAND EASTERN SHORE

CITY           SKY/WX    TMP DP  RH WIND       PRES   REMARKS
OCEAN CITY     SUNNY     87  77  72 VRB5      29.88F HX  99
SALISBURY      SUNNY     93  71  48 S9        29.88F HX 100
BAY BRIDGE AP*   N/A     88  68  51 S5        29.86F HX  91
CAMBRIDGE*     SUNNY     91  72  52 S8        29.87F HX  98
EASTON*        MOSUNNY   93  70  46 W9        29.90F HX  99

$$

MDZ017>025-022300-
SOUTHERN MARYLAND

CITY           SKY/WX    TMP DP  RH WIND       PRES   REMARKS
PATUXENT RIVER MOSUNNY   88  75  65 SE7       29.86F HX  97
ST INIGOES     MOSUNNY   90  74  59 SE3       29.86F HX  99
LEONARDTOWN*   SUNNY     91  66  43 S6        29.88F HX  94

$$

MDZ003>005-022300-
NORTH CENTRAL MARYLAND

CITY           SKY/WX    TMP DP  RH WIND       PRES   REMARKS
FREDERICK*     PTSUNNY   72  72 100 VRB3      29.93R
HAGERSTOWN APT CLOUDY    76  68  76 S6        29.89F
WESTMINSTER*   TSTM      81  72  74 W16G28    29.93R

$$

MDZ501>502-022300-
WESTERN MARYLAND

CITY           SKY/WX    TMP DP  RH WIND       PRES   REMARKS
OAKLAND*       PTSUNNY   72  70  94 SW16G25   30.01F
CUMBERLAND*    PTSUNNY   82  70  65 SE5       29.93S

$$

VAZ025>031-022300-
SHENANDOAH VALLEY

CITY           SKY/WX    TMP DP  RH WIND       PRES   REMARKS
WINCHESTER*    CLOUDY    81  64  57 NE3       29.90R
STAUNTON*      PTSUNNY   89  62  41 SW15G22   29.94F

$$

WVZ021-048>050-054>055-022300-
EASTERN WEST VIRGINIA PANHANDLE

CITY           SKY/WX    TMP DP  RH WIND       PRES   REMARKS
MARTINSBURG    CLOUDY    76  69  79 SE6       29.90R
PETERSBURG*    NOT AVBL

$$

VAZ036>039-050-022300-
CENTRAL FOOTHILLS

CITY           SKY/WX    TMP DP  RH WIND       PRES   REMARKS
CHARLOTTESVILL PTSUNNY   89  69  51 SW10      29.89F HX  93
ORANGE*        MOSUNNY   86  73  66 S3        29.90S HX  93

$$

VAZ055>057-022300-
NORTH AND CENTRAL PIEDMONT

CITY           SKY/WX    TMP DP  RH WIND       PRES   REMARKS
FREDERICKSBRG* SUNNY     93  69  44 SW8       29.86S HX  98
STAFFORD*      SUNNY     88  71  56 SW6       29.91R HX  93

$$

NCZ024-NYZ072-PAZ021-071-VAZ022-071-022300-
OTHER REGIONAL OBSERVATIONS

CITY           SKY/WX    TMP DP  RH WIND       PRES   REMARKS
NEW YORK CITY  MOSUNNY   88  64  44 VRB5      29.83F
PHILADELPHIA   MOSUNNY   91  70  49 SW13      29.85F HX  96
PITTSBURGH     PTSUNNY   78  68  71 W13       29.90R
ROANOKE        PTSUNNY   87  69  54 S10       29.96F HX  91
RICHMOND       MOSUNNY   95  68  41 SW17      29.88F HX  99
RALEIGH        PTSUNNY   92  69  47 SW18G24   29.96R THUNDER HX  97

$$

ANZ530>537-022300-
MARINE OBSERVATIONS

STATION/POSITION TIME  TEMP    WIND        PRES
                       AIR SEA DIR/SP/G
                 (UTC) (F)     (DEG/KT/KT) (MB)
THOMAS PT LIGHT  2200   84 80  180/ 12/ 14 1011.9F
BALT KEY BRIDGE  2200          210/ 14/ 16 1010.7F
COVE POINT       2200   83     180/  6/  8 1011.1S
LEWISETTA        2200   92 84  220/ 10/ 13 1010.8F
SOLOMONS ISLAND  2200      83                N/A
PINEY POINT      2200          150/  8/  9   N/A

$$




USA.gov is the U.S. government's official web portal to all federal, state and local government web resources and services.